• MPC Preparation (Info)

  • MPEC 2010-S34 : 2010 SE12

    The following Minor Planet Electronic Circular may be linked-to from your own Web pages, but must not otherwise be redistributed electronically.

    A form allowing access to any MPEC is at the bottom of this page.


    Read MPEC 2010-S33 Read MPEC 2010-S35


    M.P.E.C. 2010-S34                                Issued 2010 Sept. 21, 20:08 UT
    
         The Minor Planet Electronic Circulars contain information on unusual
             minor planets and routine data on comets.  They are published
       on behalf of Commission 20 of the International Astronomical Union by the
              Minor Planet Center, Smithsonian Astrophysical Observatory,
                              Cambridge, MA 02138, U.S.A.
    
                 Prepared using the Tamkin Foundation Computer Network
    
                                  MPC@CFA.HARVARD.EDU
           URL https://www.minorplanetcenter.org/iau/mpc.html  ISSN 1523-6714
    
                                       2010 SE12
    
    Observations:
         K10S12E* C2010 09 19.25539 00 38 00.90 +05 14 18.2          20.7 V ES034691
         K10S12E  C2010 09 19.27302 00 38 02.58 +05 13 02.9          20.5 V ES034691
         K10S12E  C2010 09 19.29065 00 38 04.25 +05 11 46.2          20.7 V ES034691
         K10S12E  C2010 09 19.33886 00 38 08.76 +05 08 18.9          20.7 V ES034291
         K10S12E  C2010 09 19.34309 00 38 09.14 +05 08 00.2          21.0 V ES034291
         K10S12E  C2010 09 19.34717 00 38 09.55 +05 07 42.2          20.9 V ES034291
         K10S12E  C2010 09 19.42196 00 38 16.52 +05 02 18.8          20.8 V ES034291
         K10S12E  C2010 09 19.42564 00 38 16.86 +05 02 03.2          20.8 V ES034291
         K10S12E  C2010 09 19.42934 00 38 17.23 +05 01 46.9          20.6 V ES034291
         K10S12E tC2010 09 19.49888 00 38 24.15 +04 56 45.5                 ES034291
         K10S12E tC2010 09 19.50260 00 38 24.53 +04 56 29.3                 ES034291
         K10S12E tC2010 09 19.50631 00 38 24.86 +04 56 14.7                 ES034291
         K10S12E KC2010 09 21.25024600 41 46.41 +02 52 11.5          20.6 V ES034H21
         K10S12E KC2010 09 21.26590900 41 47.79 +02 51 05.5          20.8 V ES034H21
         K10S12E KC2010 09 21.28176900 41 49.21 +02 49 58.7          21.2 V ES034H21
    
    Observer details:
    291 LPL/Spacewatch II.  Observer T. H. Bressi.  1.8-m f/2.7 reflector + CCD.
    691 Steward Observatory, Kitt Peak.  Observer T. H. Bressi.  0.9-m f/3
        reflector + CCD.
    H21 Astronomical Research Observatory, Westfield.  Observer R. Holmes.  0.81-m
        f/4.5 astrograph + CCD.
    
    Orbital elements:
    2010 SE12                                                Earth MOID = 0.1152 AU
    Epoch 2010 July 23.0 TT = JDT 2455400.5                 MPC
    M 340.31481              (2000.0)            P               Q
    n   0.61890865     Peri.  155.27964     +0.89669706     +0.44262240
    a   1.3636985      Node   178.42795     -0.42830168     +0.87013549
    e   0.1845665      Incl.    9.33368     -0.11176785     +0.21667865
    P   1.59           H   24.3           G   0.15           U   7
    Residuals in seconds of arc
    100919 691  0.0   0.1-    100919 291  0.4+  0.4-    100919 291  0.2+  0.4-
    100919 691  0.2-  0.5+    100919 291  0.0   0.4-    100919 291  0.6-  1.1+
    100919 691  0.1-  0.2-    100919 291  0.2-  0.0     100921 H21  0.2-  0.0
    100919 291  0.1+  0.4+    100919 291  0.1+  0.3-    100921 H21  0.1-  0.0
    100919 291  0.0   0.0     100919 291  0.3+  0.3-    100921 H21  0.4+  0.0
    
    Ephemeris:
    2010 SE12                a,e,i = 1.36, 0.18, 9                   q = 1.1120
    Date    TT    R. A. (2000) Decl.     Delta      r     Elong.  Phase     V
    2010 09 21    00 41.30   +03 10.5    0.128    1.129   167.0    11.6    20.8
    2010 10 01    00 56.54   -07 20.0    0.145    1.143   167.4    11.0    21.1
    2010 10 11    01 06.49   -14 33.3    0.172    1.160   158.6    18.3    21.7
    2010 10 21    01 13.72   -18 27.6    0.208    1.180   150.2    24.8    22.4
    
    Sonia Keys                   (C) Copyright 2010 MPC           M.P.E.C. 2010-S34
    

    Read MPEC 2010-S33 Read MPEC 2010-S35


    MPEC number:

    Enter an MPEC number in one of the following forms:

    • 1997-B01 (the full form)
    • J97B01 (the packed version of the full form)
    • B01 (the abbreviated form)